QPF
0.03 0.03 0.03 0.03 0.03 0.03 0.03 0.02 0.03 0.02 0.01 0.01 0.01 0.00 0.01 0.01 0.01 0.02 0.02 0.04 0.05 0.05 0.05 0.05 0.05 0.04 0.04 0.05 0.06 0.05 0.05 0.06 0.06 0.05 0.05 0.07 0.07 0.07
0.01 0.02 0.02 0.02 0.03 0.03 0.02 0.03 0.03 0.03 0.02 0.01 0.01 0.00 0.00 0.01 0.01 0.01 0.02 0.03 0.05 0.05 0.06 0.06 0.06 0.05 0.04 0.03 0.04 0.05 0.05 0.06 0.06 0.05 0.04 0.04 0.05 0.06
0.01 0.02 0.02 0.02 0.02 0.02 0.02 0.02 0.03 0.03 0.03 0.02 0.01 0.01 0.01 0.01 0.01 0.01 0.02 0.02 0.03 0.06 0.07 0.07 0.07 0.07 0.06 0.05 0.03 0.03 0.04 0.05 0.05 0.05 0.04 0.04 0.04 0.04
0.02 0.02 0.02 0.02 0.02 0.02 0.02 0.02 0.03 0.03 0.03 0.02 0.02 0.01 0.01 0.01 0.01 0.01 0.02 0.03 0.03 0.04 0.06 0.07 0.07 0.07 0.06 0.07 0.05 0.03 0.02 0.02 0.03 0.03 0.04 0.04 0.04 0.04
0.02 0.03 0.03 0.03 0.03 0.03 0.03 0.03 0.03 0.03 0.03 0.03 0.03 0.02 0.01 0.01 0.01 0.01 0.02 0.02 0.03 0.04 0.04 0.05 0.05 0.07 0.07 0.06 0.05 0.04 0.03 0.02 0.01 0.01 0.02 0.02 0.03 0.03
0.03 0.03 0.03 0.03 0.03 0.03 0.03 0.04 0.05 0.06 0.05 0.05 0.03 0.02 0.01 0.02 0.02 0.02 0.02 0.03 0.03 0.04 0.04 0.04 0.05 0.06 0.06 0.06 0.04 0.04 0.03 0.03 0.02 0.02 0.01 0.02 0.02 0.03
0.04 0.04 0.03 0.03 0.02 0.03 0.03 0.05 0.06 0.07 0.06 0.04 0.03 0.02 0.02 0.02 0.02 0.02 0.03 0.04 0.05 0.05 0.05 0.05 0.06 0.06 0.06 0.06 0.05 0.05 0.03 0.02 0.02 0.02 0.02 0.02 0.02 0.02
0.02 0.02 0.02 0.02 0.02 0.02 0.03 0.04 0.05 0.04 0.04 0.03 0.03 0.02 0.02 0.02 0.02 0.02 0.03 0.04 0.05 0.05 0.06 0.06 0.06 0.06 0.06 0.06 0.06 0.06 0.04 0.03 0.02 0.02 0.02 0.02 0.03 0.02
0.02 0.02 0.01 0.01 0.01 0.02 0.02 0.02 0.03 0.04 0.04 0.03 0.02 0.02 0.02 0.02 0.03 0.03 0.03 0.03 0.05 0.07 0.07 0.09 0.07 0.06 0.06 0.06 0.06 0.06 0.06 0.05 0.04 0.03 0.03 0.03 0.03 0.03
0.01 0.02 0.01 0.01 0.02 0.03 0.03 0.03 0.02 0.03 0.03 0.03 0.02 0.03 0.03 0.03 0.03 0.04 0.04 0.04 0.04 0.06 0.08 0.09 0.07 0.05 0.05 0.04 0.05 0.05 0.05 0.06 0.05 0.04 0.04 0.04 0.04 0.04
0.01 0.01 0.01 0.01 0.02 0.03 0.03 0.03 0.03 0.03 0.03 0.03 0.03 0.04 0.04 0.04 0.04 0.04 0.05 0.05 0.05 0.05 0.05 0.06 0.05 0.04 0.04 0.04 0.04 0.04 0.04 0.05 0.05 0.04 0.04 0.04 0.04 0.04
0.00 0.01 0.01 0.01 0.01 0.02 0.02 0.02 0.02 0.02 0.03 0.03 0.03 0.03 0.04 0.04 0.04 0.04 0.04 0.04 0.05 0.05 0.04 0.05 0.05 0.04 0.04 0.04 0.03 0.03 0.02 0.03 0.04 0.04 0.03 0.03 0.03 0.03
0.00 0.00 0.01 0.01 0.01 0.01 0.01 0.02 0.02 0.02 0.02 0.02 0.02 0.02 0.02 0.03 0.03 0.03 0.04 0.04 0.05 0.05 0.04 0.04 0.04 0.03 0.03 0.03 0.02 0.02 0.01 0.02 0.03 0.04 0.04 0.03 0.03 0.03
0.00 0.00 0.01 0.01 0.01 0.01 0.02 0.02 0.03 0.03 0.02 0.02 0.02 0.02 0.02 0.02 0.02 0.03 0.03 0.03 0.03 0.03 0.02 0.03 0.03 0.03 0.03 0.03 0.04 0.04 0.03 0.03 0.03 0.04 0.05 0.04 0.02 0.02
0.00 0.00 0.01 0.01 0.01 0.01 0.02 0.02 0.02 0.03 0.03 0.03 0.03 0.02 0.03 0.03 0.03 0.04 0.04 0.03 0.02 0.01 0.01 0.02 0.03 0.04 0.05 0.05 0.06 0.06 0.05 0.05 0.05 0.04 0.04 0.04 0.02 0.01
0.00 0.00 0.01 0.01 0.01 0.01 0.01 0.01 0.01 0.02 0.03 0.04 0.04 0.03 0.02 0.02 0.02 0.02 0.02 0.02 0.02 0.02 0.02 0.02 0.03 0.04 0.04 0.04 0.05 0.05 0.05 0.06 0.06 0.04 0.03 0.03 0.03 0.02
0.01 0.01 0.01 0.01 0.01 0.00 0.00 0.01 0.01 0.02 0.02 0.02 0.02 0.02 0.02 0.01 0.02 0.03 0.04 0.05 0.03 0.02 0.02 0.02 0.02 0.02 0.03 0.03 0.03 0.03 0.03 0.03 0.04 0.03 0.02 0.02 0.02 0.02
0.00 0.01 0.01 0.01 0.01 0.01 0.01 0.01 0.01 0.02 0.02 0.02 0.02 0.02 0.02 0.03 0.04 0.04 0.04 0.04 0.03 0.02 0.02 0.01 0.01 0.02 0.03 0.03 0.02 0.02 0.02 0.02 0.02 0.02 0.01 0.01 0.02 0.03
0.00 0.00 0.01 0.01 0.01 0.02 0.02 0.02 0.02 0.02 0.02 0.03 0.03 0.02 0.03 0.03 0.04 0.03 0.03 0.03 0.02 0.02 0.02 0.03 0.03 0.02 0.02 0.03 0.03 0.02 0.02 0.02 0.02 0.02 0.01 0.01 0.02 0.02
0.00 0.00 0.01 0.01 0.02 0.02 0.02 0.03 0.03 0.02 0.02 0.02 0.03 0.03 0.03 0.02 0.02 0.02 0.02 0.02 0.02 0.02 0.03 0.03 0.02 0.02 0.02 0.03 0.03 0.02 0.02 0.02 0.01 0.01 0.01 0.01 0.01 0.02
0.00 0.00 0.01 0.01 0.02 0.03 0.03 0.03 0.03 0.03 0.03 0.03 0.03 0.03 0.02 0.02 0.02 0.02 0.01 0.02 0.02 0.02 0.03 0.02 0.02 0.03 0.03 0.02 0.02 0.01 0.01 0.02 0.02 0.01 0.01 0.01 0.01 0.01
0.00 0.00 0.00 0.01 0.02 0.03 0.03 0.03 0.03 0.04 0.03 0.03 0.03 0.02 0.02 0.01 0.01 0.01 0.01 0.01 0.01 0.01 0.01 0.01 0.02 0.02 0.03 0.03 0.03 0.02 0.02 0.02 0.02 0.01 0.01 0.00 0.01 0.01
0.00 0.00 0.00 0.01 0.01 0.01 0.02 0.02 0.03 0.03 0.04 0.03 0.03 0.02 0.01 0.01 0.01 0.00 0.00 0.00 0.01 0.01 0.01 0.01 0.02 0.02 0.03 0.04 0.05 0.05 0.03 0.02 0.01 0.01 0.01 0.01 0.01 0.01
MSLP
1018.34 1018.31 1018.26 1018.18 1018.03 1017.76 1017.37 1016.82 1016.14 1015.35 1014.48 1013.59 1012.73 1011.94 1011.25 1010.67 1010.19 1009.80 1009.46 1009.14 1008.82 1008.49 1008.13 1007.76 1007.41 1007.08 1006.79 1006.56 1006.39 1006.26 1006.16 1006.08 1005.98 1005.86 1005.73 1005.58 1005.43 1005.31
1018.09 1018.01 1017.92 1017.79 1017.61 1017.33 1016.93 1016.40 1015.74 1014.97 1014.12 1013.23 1012.36 1011.55 1010.82 1010.19 1009.65 1009.20 1008.81 1008.44 1008.08 1007.71 1007.33 1006.94 1006.57 1006.22 1005.93 1005.69 1005.51 1005.39 1005.30 1005.24 1005.17 1005.10 1004.99 1004.87 1004.75 1004.64
1017.79 1017.65 1017.50 1017.33 1017.11 1016.81 1016.41 1015.91 1015.28 1014.56 1013.75 1012.91 1012.06 1011.25 1010.50 1009.83 1009.24 1008.73 1008.27 1007.84 1007.42 1007.00 1006.57 1006.15 1005.74 1005.36 1005.04 1004.78 1004.59 1004.46 1004.38 1004.33 1004.29 1004.25 1004.18 1004.10 1004.00 1003.91
1017.48 1017.27 1017.05 1016.82 1016.56 1016.24 1015.85 1015.37 1014.80 1014.13 1013.39 1012.60 1011.80 1011.01 1010.26 1009.57 1008.94 1008.37 1007.85 1007.35 1006.86 1006.38 1005.89 1005.41 1004.95 1004.52 1004.15 1003.86 1003.63 1003.49 1003.40 1003.36 1003.33 1003.31 1003.28 1003.23 1003.17 1003.11
1017.16 1016.88 1016.60 1016.31 1016.00 1015.66 1015.27 1014.82 1014.29 1013.68 1013.01 1012.29 1011.54 1010.79 1010.06 1009.37 1008.71 1008.10 1007.52 1006.96 1006.41 1005.86 1005.30 1004.75 1004.22 1003.73 1003.30 1002.95 1002.68 1002.49 1002.38 1002.33 1002.31 1002.31 1002.30 1002.29 1002.26 1002.24
1016.82 1016.48 1016.14 1015.80 1015.45 1015.08 1014.68 1014.24 1013.75 1013.20 1012.59 1011.93 1011.24 1010.54 1009.84 1009.16 1008.51 1007.87 1007.26 1006.65 1006.04 1005.42 1004.80 1004.18 1003.58 1003.02 1002.52 1002.09 1001.76 1001.53 1001.37 1001.30 1001.27 1001.27 1001.28 1001.30 1001.31 1001.33
1016.45 1016.06 1015.67 1015.28 1014.89 1014.50 1014.09 1013.65 1013.18 1012.66 1012.10 1011.50 1010.86 1010.21 1009.56 1008.91 1008.27 1007.64 1007.01 1006.38 1005.73 1005.07 1004.39 1003.71 1003.04 1002.41 1001.83 1001.34 1000.94 1000.64 1000.44 1000.32 1000.27 1000.27 1000.29 1000.34 1000.39 1000.45
1016.02 1015.61 1015.19 1014.76 1014.34 1013.92 1013.49 1013.05 1012.59 1012.09 1011.56 1011.00 1010.41 1009.81 1009.20 1008.59 1007.98 1007.37 1006.76 1006.13 1005.47 1004.78 1004.07 1003.34 1002.62 1001.93 1001.28 1000.72 1000.25 999.89 999.63 999.48 999.40 999.39 999.42 999.48 999.56 999.66
1015.56 1015.13 1014.69 1014.25 1013.81 1013.37 1012.93 1012.48 1012.01 1011.52 1011.00 1010.46 1009.91 1009.34 1008.78 1008.21 1007.65 1007.08 1006.49 1005.88 1005.24 1004.55 1003.83 1003.08 1002.33 1001.59 1000.89 1000.27 999.75 999.33 999.03 998.83 998.72 998.69 998.72 998.79 998.90 999.03
1015.08 1014.66 1014.22 1013.78 1013.34 1012.89 1012.44 1011.98 1011.50 1011.00 1010.49 1009.96 1009.42 1008.88 1008.35 1007.82 1007.30 1006.78 1006.24 1005.66 1005.05 1004.38 1003.67 1002.93 1002.16 1001.40 1000.68 1000.02 999.46 999.00 998.66 998.42 998.30 998.25 998.27 998.35 998.46 998.62
1014.65 1014.25 1013.83 1013.41 1012.98 1012.55 1012.09 1011.62 1011.13 1010.62 1010.10 1009.57 1009.03 1008.51 1008.00 1007.50 1007.01 1006.53 1006.02 1005.49 1004.91 1004.28 1003.59 1002.86 1002.10 1001.35 1000.62 999.95 999.37 998.89 998.53 998.27 998.12 998.06 998.08 998.15 998.26 998.42
1014.31 1013.94 1013.57 1013.19 1012.79 1012.37 1011.93 1011.46 1010.96 1010.44 1009.91 1009.36 1008.82 1008.30 1007.79 1007.31 1006.84 1006.37 1005.90 1005.39 1004.84 1004.24 1003.58 1002.87 1002.14 1001.40 1000.69 1000.03 999.45 998.97 998.60 998.34 998.18 998.11 998.11 998.17 998.27 998.41
1014.09 1013.77 1013.45 1013.11 1012.76 1012.37 1011.95 1011.50 1011.01 1010.48 1009.94 1009.38 1008.83 1008.29 1007.78 1007.29 1006.82 1006.36 1005.88 1005.39 1004.85 1004.27 1003.63 1002.95 1002.25 1001.54 1000.86 1000.23 999.67 999.21 998.85 998.59 998.42 998.34 998.32 998.35 998.43 998.54
1013.99 1013.72 1013.46 1013.18 1012.87 1012.53 1012.15 1011.72 1011.24 1010.72 1010.18 1009.62 1009.05 1008.50 1007.97 1007.46 1006.97 1006.49 1006.01 1005.50 1004.96 1004.38 1003.76 1003.10 1002.43 1001.75 1001.11 1000.51 999.99 999.55 999.21 998.95 998.78 998.68 998.63 998.63 998.67 998.74
1013.96 1013.75 1013.54 1013.32 1013.07 1012.78 1012.44 1012.05 1011.60 1011.11 1010.57 1010.01 1009.45 1008.88 1008.33 1007.80 1007.29 1006.78 1006.26 1005.73 1005.18 1004.59 1003.97 1003.33 1002.68 1002.04 1001.43 1000.87 1000.39 999.98 999.65 999.40 999.22 999.09 999.01 998.96 998.94 998.95
1013.93 1013.78 1013.62 1013.46 1013.27 1013.04 1012.76 1012.41 1012.00 1011.54 1011.03 1010.49 1009.93 1009.37 1008.81 1008.26 1007.71 1007.18 1006.63 1006.07 1005.50 1004.89 1004.27 1003.64 1003.02 1002.41 1001.84 1001.32 1000.86 1000.48 1000.17 999.91 999.71 999.55 999.41 999.30 999.21 999.15
1013.84 1013.73 1013.64 1013.54 1013.41 1013.24 1013.01 1012.72 1012.36 1011.94 1011.47 1010.96 1010.43 1009.88 1009.32 1008.76 1008.21 1007.65 1007.08 1006.50 1005.91 1005.30 1004.69 1004.07 1003.47 1002.89 1002.35 1001.87 1001.44 1001.07 1000.76 1000.49 1000.26 1000.04 999.85 999.66 999.49 999.34
1013.63 1013.58 1013.54 1013.49 1013.42 1013.31 1013.14 1012.90 1012.61 1012.24 1011.82 1011.36 1010.86 1010.34 1009.80 1009.26 1008.71 1008.15 1007.58 1007.00 1006.41 1005.81 1005.21 1004.62 1004.05 1003.50 1003.00 1002.55 1002.14 1001.78 1001.45 1001.16 1000.88 1000.61 1000.34 1000.07 999.80 999.56
1013.30 1013.30 1013.32 1013.33 1013.32 1013.26 1013.15 1012.97 1012.73 1012.42 1012.05 1011.64 1011.18 1010.70 1010.20 1009.69 1009.16 1008.62 1008.08 1007.52 1006.96 1006.39 1005.83 1005.27 1004.74 1004.24 1003.77 1003.34 1002.95 1002.59 1002.25 1001.92 1001.59 1001.26 1000.91 1000.55 1000.19 999.85
1012.88 1012.94 1013.02 1013.08 1013.13 1013.12 1013.06 1012.93 1012.74 1012.48 1012.16 1011.80 1011.39 1010.95 1010.49 1010.02 1009.54 1009.04 1008.54 1008.03 1007.51 1007.00 1006.49 1005.99 1005.51 1005.05 1004.63 1004.23 1003.85 1003.49 1003.13 1002.77 1002.39 1001.99 1001.57 1001.14 1000.70 1000.27
1012.43 1012.55 1012.68 1012.80 1012.90 1012.94 1012.93 1012.85 1012.69 1012.47 1012.19 1011.86 1011.49 1011.09 1010.67 1010.25 1009.81 1009.37 1008.92 1008.47 1008.02 1007.57 1007.13 1006.69 1006.28 1005.87 1005.49 1005.12 1004.76 1004.40 1004.04 1003.65 1003.24 1002.80 1002.33 1001.83 1001.33 1000.83
1011.99 1012.16 1012.35 1012.53 1012.68 1012.77 1012.79 1012.74 1012.61 1012.42 1012.16 1011.85 1011.50 1011.13 1010.75 1010.36 1009.96 1009.57 1009.18 1008.80 1008.41 1008.04 1007.67 1007.30 1006.95 1006.60 1006.27 1005.93 1005.60 1005.26 1004.89 1004.50 1004.08 1003.62 1003.12 1002.60 1002.06 1001.53
1011.57 1011.81 1012.06 1012.29 1012.48 1012.61 1012.67 1012.64 1012.53 1012.34 1012.09 1011.79 1011.45 1011.09 1010.72 1010.36 1009.99 1009.64 1009.30 1008.97 1008.65 1008.34 1008.03 1007.73 1007.44 1007.15 1006.86 1006.56 1006.26 1005.95 1005.60 1005.23 1004.82 1004.38 1003.89 1003.38 1002.85 1002.31
Thickness
5628 5626 5623 5622 5619 5617 5614 5611 5608 5608 5611 5613 5613 5616 5615 5616 5616 5617 5618 5618 5619 5619 5619 5619 5619 5619 5619 5619 5619 5619 5620 5620 5620 5621 5622 5623 5624 5625
5624 5621 5619 5617 5614 5612 5609 5606 5604 5603 5604 5608 5608 5609 5609 5610 5611 5611 5612 5613 5613 5613 5614 5613 5613 5613 5613 5613 5613 5613 5613 5613 5613 5614 5615 5616 5617 5619
5619 5616 5614 5612 5609 5607 5605 5602 5600 5598 5598 5602 5602 5603 5603 5603 5604 5605 5606 5607 5608 5608 5609 5608 5608 5608 5608 5608 5608 5607 5607 5607 5607 5607 5608 5610 5611 5613
5614 5612 5610 5608 5604 5602 5600 5598 5596 5594 5593 5595 5597 5597 5597 5597 5598 5599 5600 5601 5602 5603 5603 5603 5604 5603 5603 5602 5602 5602 5602 5602 5602 5602 5602 5604 5605 5606
5610 5607 5605 5602 5599 5597 5595 5594 5592 5591 5589 5588 5590 5590 5590 5591 5591 5592 5593 5594 5595 5597 5597 5598 5598 5598 5597 5597 5597 5597 5597 5596 5596 5596 5596 5597 5598 5600
5606 5603 5600 5598 5595 5593 5591 5589 5588 5586 5584 5583 5583 5584 5583 5584 5583 5585 5587 5588 5589 5590 5591 5591 5592 5592 5592 5592 5592 5592 5591 5591 5590 5590 5591 5591 5592 5593
5602 5599 5597 5595 5592 5589 5588 5585 5583 5581 5580 5579 5578 5577 5578 5578 5578 5578 5579 5580 5582 5583 5584 5585 5586 5586 5587 5587 5587 5587 5587 5586 5586 5585 5586 5586 5586 5587
5597 5595 5594 5592 5589 5587 5584 5582 5580 5578 5576 5574 5574 5573 5574 5573 5572 5572 5571 5572 5575 5577 5576 5578 5579 5580 5581 5582 5582 5582 5582 5582 5581 5581 5581 5581 5581 5581
5593 5591 5590 5589 5585 5583 5581 5579 5576 5574 5573 5571 5570 5570 5569 5569 5567 5566 5566 5566 5567 5569 5568 5571 5573 5574 5576 5577 5577 5577 5577 5577 5576 5576 5576 5576 5575 5576
5590 5588 5585 5583 5581 5578 5576 5574 5573 5572 5570 5568 5567 5567 5566 5564 5562 5561 5560 5560 5561 5562 5562 5564 5567 5568 5570 5571 5571 5571 5572 5572 5572 5571 5571 5570 5570 5570
5587 5584 5582 5579 5577 5573 5571 5569 5568 5567 5566 5564 5563 5561 5560 5558 5556 5555 5554 5554 5556 5558 5557 5557 5561 5562 5563 5564 5565 5566 5566 5566 5566 5566 5566 5565 5564 5564
5583 5580 5577 5573 5570 5567 5565 5563 5562 5562 5561 5560 5558 5557 5555 5554 5552 5551 5550 5548 5549 5551 5552 5550 5553 5554 5557 5558 5558 5559 5559 5560 5560 5560 5560 5560 5559 5558
5578 5575 5572 5568 5565 5562 5559 5558 5556 5555 5554 5553 5553 5552 5551 5549 5548 5546 5545 5543 5543 5545 5546 5545 5546 5547 5549 5550 5551 5552 5552 5553 5553 5554 5554 5554 5553 5553
5572 5570 5566 5563 5560 5557 5555 5553 5551 5549 5548 5547 5546 5546 5545 5544 5543 5542 5541 5540 5540 5540 5541 5539 5540 5541 5542 5543 5545 5546 5546 5546 5547 5548 5548 5548 5547 5547
5567 5564 5560 5557 5555 5553 5551 5548 5547 5545 5543 5542 5541 5540 5539 5538 5538 5538 5538 5537 5537 5536 5536 5535 5535 5536 5536 5537 5538 5539 5540 5540 5541 5541 5541 5541 5542 5542
5563 5559 5556 5553 5550 5548 5546 5545 5542 5539 5537 5536 5535 5535 5534 5534 5533 5533 5532 5533 5533 5533 5532 5531 5531 5531 5531 5532 5532 5533 5534 5534 5535 5535 5535 5535 5536 5536
5557 5554 5552 5550 5548 5545 5543 5540 5538 5535 5533 5531 5531 5531 5530 5529 5529 5528 5527 5527 5527 5528 5528 5527 5526 5526 5527 5527 5527 5528 5528 5529 5528 5528 5529 5530 5531 5531
5553 5550 5547 5544 5542 5540 5538 5536 5533 5531 5529 5527 5527 5526 5526 5526 5525 5524 5523 5522 5522 5522 5522 5521 5521 5522 5522 5523 5522 5523 5523 5523 5522 5522 5523 5525 5527 5526
5551 5547 5544 5541 5538 5535 5533 5530 5528 5526 5524 5523 5522 5522 5522 5521 5520 5519 5518 5517 5517 5517 5516 5515 5515 5516 5518 5520 5520 5517 5518 5518 5517 5517 5517 5518 5520 5520
5548 5544 5541 5538 5535 5531 5528 5526 5523 5521 5520 5518 5517 5516 5515 5515 5514 5513 5512 5511 5511 5511 5511 5510 5510 5510 5511 5512 5512 5512 5511 5512 5512 5512 5512 5512 5512 5512
5546 5542 5538 5535 5531 5528 5525 5521 5518 5516 5515 5513 5512 5510 5509 5508 5508 5507 5506 5504 5504 5505 5505 5505 5504 5503 5504 5504 5505 5507 5506 5505 5505 5506 5506 5506 5507 5508
5544 5541 5537 5533 5529 5525 5521 5517 5514 5512 5510 5508 5506 5504 5503 5502 5501 5501 5500 5500 5500 5500 5500 5499 5499 5499 5500 5500 5500 5500 5500 5499 5499 5499 5499 5500 5502 5504
5542 5538 5534 5530 5526 5522 5518 5514 5511 5508 5505 5503 5501 5499 5497 5496 5495 5495 5494 5494 5494 5495 5495 5495 5494 5494 5493 5493 5493 5493 5493 5493 5493 5494 5493 5492 5493 5494